Tallahassee, FL

11:38 PM EDT on May 21, 2018 (GMT -0400)
Tallahassee Regional

Weather History for KTLH - December, 2013

Change the Weather History Date:

Saturday, December 7, 2013

  Actual Average Record
Temperature  
Mean Temperature 75 °F 55 °F  
Max Temperature 84 °F 67 °F 84 °F (2013)
Min Temperature 66 °F 43 °F 18 °F (1937)
Degree Days  
Heating Degree Days 0    
Month to date heating degree days 16  
Since 1 July heating degree days 183  
Cooling Degree Days 10    
Month to date cooling degree days 30  
Year to date cooling degree days 2827  
Growing Degree Days 25 (Base 50)    
Moisture  
Dew Point 67 °F    
Average Humidity 78    
Maximum Humidity 97    
Minimum Humidity 58    
Precipitation  
Precipitation 0.16 in 0.12 in 2.44 in (1996)
Month to date precipitation 0.16 0.90  
Year to date precipitation 62.04 56.23  
Sea Level Pressure  
Sea Level Pressure 30.17 in    
Wind  
Wind Speed 4 mph (WSW)    
Max Wind Speed 14 mph    
Max Gust Speed 16 mph    
Visibility 6 miles    
Events Fog , Rain    
T = Trace of Precipitation, MM = Missing Value Source: NWS Daily Summary

Daily Weather History Graph

Daily Weather History Graph

Search for Another Location

Airport or City:

Astronomy

Dec. 07, 2013 Rise Set
Actual Time 7:21 AM EST 5:36 PM EST
Civil Twilight 6:55 AM EST 6:02 PM EST
Nautical Twilight 6:25 AM EST 6:32 PM EST
Astronomical Twilight 5:55 AM EST 7:02 PM EST
Moon 11:19 AM EST (12/7) 11:01 PM EST (12/7)
Length of Visible Light 11h 07m
Length of Day
10h 15m
Waxing Crescent, 29% of the Moon is Illuminated
Dec 7
Waxing Crescent
Dec 9
First Quarter
Dec 17
Full
Dec 25
Last Quarter
Jan 1
New

Hourly Weather History & Observations

Time (EST) Temp. Heat Index Dew Point Humidity Pressure Visibility Wind Dir Wind Speed Gust Speed Precip Events Conditions
12:53 AM 69.1 °F - 66.9 °F 93% 30.14 in 0.5 mi SSE 4.6 mph - N/A Fog Fog
1:07 AM 69.8 °F - 66.2 °F 88% 30.13 in 0.2 mi SSE 4.6 mph - N/A Fog Fog
1:22 AM 69.8 °F - 66.2 °F 88% 30.13 in 0.5 mi SSE 4.6 mph - N/A Fog Fog
1:53 AM 69.1 °F - 66.9 °F 93% 30.13 in 0.5 mi SSE 4.6 mph - N/A Fog Fog
2:29 AM 69.8 °F - 66.2 °F 88% 30.13 in 0.2 mi South 3.5 mph - N/A Fog Fog
2:53 AM 70.0 °F - 66.9 °F 90% 30.14 in 0.2 mi Calm Calm - N/A Fog Fog
3:28 AM 69.8 °F - 66.2 °F 88% 30.14 in 0.5 mi SSE 3.5 mph - N/A Fog Fog
3:53 AM 70.0 °F - 66.9 °F 90% 30.14 in 0.5 mi Calm Calm - N/A Fog Fog
4:20 AM 69.8 °F - 68.0 °F 94% 30.14 in 1.0 mi SSE 3.5 mph - N/A   Mist
4:53 AM 70.0 °F - 68.0 °F 93% 30.13 in 1.0 mi South 3.5 mph - N/A   Mist
5:29 AM 69.8 °F - 68.0 °F 94% 30.14 in 0.8 mi Calm Calm - N/A   Mist
5:53 AM 70.0 °F - 68.0 °F 93% 30.14 in 0.5 mi SSE 3.5 mph - N/A Fog Fog
6:53 AM 71.1 °F - 68.0 °F 90% 30.16 in 0.5 mi SSE 3.5 mph - N/A Fog Fog
7:19 AM 71.6 °F - 68.0 °F 88% 30.17 in 0.1 mi SSE 3.5 mph - N/A Fog Fog
7:53 AM 71.1 °F - 69.1 °F 93% 30.18 in 0.1 mi Calm Calm - N/A Fog Fog
8:53 AM 72.0 °F - 69.1 °F 91% 30.19 in 0.1 mi Calm Calm - N/A Fog Fog
9:41 AM 71.6 °F - 69.8 °F 94% 30.20 in 0.2 mi SSE 4.6 mph - N/A Fog Fog
9:53 AM 73.0 °F - 70.0 °F 90% 30.20 in 0.2 mi South 3.5 mph - N/A Fog Fog
9:55 AM 73.4 °F - 69.8 °F 88% 30.21 in 3.0 mi South 3.5 mph - N/A   Overcast
10:26 AM 73.4 °F - 71.6 °F 94% 30.21 in 10.0 mi SSW 6.9 mph - N/A   Overcast
10:53 AM 73.9 °F - 70.0 °F 87% 30.21 in 10.0 mi SW 9.2 mph - 0.00 in   Mostly Cloudy
11:09 AM 78.8 °F - 69.8 °F 74% 30.21 in 10.0 mi SW 10.4 mph - N/A   Scattered Clouds
11:53 AM 82.0 °F 84.9 °F 68.0 °F 62% 30.19 in 10.0 mi WSW 9.2 mph - N/A   Mostly Cloudy
12:03 PM 80.6 °F 83.2 °F 68.0 °F 65% 30.19 in 10.0 mi SSW 6.9 mph - N/A   Scattered Clouds
12:53 PM 82.0 °F 84.1 °F 66.0 °F 58% 30.17 in 10.0 mi WNW 8.1 mph - N/A   Scattered Clouds
1:16 PM 77.0 °F - 69.8 °F 78% 30.17 in 8.0 mi NW 11.5 mph - 0.00 in Rain Light Rain
1:24 PM 75.2 °F - 69.8 °F 83% 30.16 in 1.8 mi NW 10.4 mph - 0.01 in Rain Heavy Rain
1:32 PM 73.4 °F - 69.8 °F 88% 30.16 in 3.0 mi NNW 5.8 mph - 0.12 in Rain Rain
1:53 PM 75.9 °F - 69.1 °F 79% 30.15 in 10.0 mi NW 5.8 mph - 0.12 in   Overcast
2:51 PM 77.0 °F - 68.0 °F 74% 30.15 in 10.0 mi Calm Calm - N/A   Overcast
2:53 PM 77.0 °F - 68.0 °F 74% 30.15 in 10.0 mi Calm Calm - N/A   Overcast
3:45 PM 77.0 °F - 69.8 °F 78% 30.15 in 10.0 mi NW 6.9 mph - N/A   Overcast
3:53 PM 75.9 °F - 68.0 °F 76% 30.15 in 10.0 mi NNW 8.1 mph - N/A   Overcast
4:22 PM 75.2 °F - 68.0 °F 78% 30.16 in 10.0 mi NNW 5.8 mph - N/A   Overcast
4:53 PM 73.0 °F - 66.0 °F 79% 30.17 in 10.0 mi North 6.9 mph - N/A   Overcast
5:39 PM 71.6 °F - 66.2 °F 83% 30.18 in 10.0 mi North 4.6 mph - N/A   Overcast
5:53 PM 72.0 °F - 64.9 °F 78% 30.19 in 10.0 mi NW 3.5 mph - N/A   Overcast
6:06 PM 71.6 °F - 66.2 °F 83% 30.19 in 6.0 mi North 5.8 mph - 0.01 in Rain Rain
6:41 PM 69.8 °F - 66.2 °F 88% 30.19 in 9.0 mi North 3.5 mph - 0.04 in Rain Light Rain
6:53 PM 70.0 °F - 64.9 °F 84% 30.20 in 10.0 mi NNW 6.9 mph - 0.04 in   Overcast
7:02 PM 69.8 °F - 64.4 °F 83% 30.20 in 10.0 mi North 5.8 mph - N/A   Overcast
7:12 PM 69.8 °F - 64.4 °F 83% 30.20 in 10.0 mi NNW 5.8 mph - N/A   Overcast
7:53 PM 68.0 °F - 63.0 °F 84% 30.20 in 10.0 mi NNW 8.1 mph - N/A   Overcast
8:53 PM 66.0 °F - 62.1 °F 87% 30.21 in 10.0 mi North 5.8 mph - N/A   Overcast
9:53 PM 66.0 °F - 61.0 °F 84% 30.22 in 10.0 mi Calm Calm - N/A   Overcast
10:53 PM 66.0 °F - 61.0 °F 84% 30.22 in 10.0 mi Calm Calm - N/A   Overcast
11:53 PM 66.0 °F - 61.0 °F 84% 30.21 in 10.0 mi Calm Calm - N/A   Overcast